Location: Holkham
(52.9500°N, 0.8167°E)
Time: 00:09:24
(UTC+00:00)

ALOS 2 - Pass Details

Date: 19 May 2025
Orbit: 630 x 632 km, 97.9° (Epoch: 18 June)

Event Time Altitude Azimuth Distance (km) Brightness Sun altitude
Exits shadow 22:19:06 16° 119° (ESE) 1,643 4.3 -14.3°
Maximum altitude 22:21:57 33° 64° (ENE) 1,082 3.8 -14.4°
Drops below altitude 10° 22:25:53 10° 1° (N) 2,028 6.3 -14.6°
Sets 22:28:15 0° 352° (N) 2,941 7.7 -14.8°
